Time,TemperatureF,DewpointF,PressureIn,WindDirection,WindDirectionDegrees,WindSpeedMPH,WindSpeedGustMPH,Humidity,HourlyPrecipIn,Conditions,Clouds,dailyrainin,SoftwareType,DateUTC
2013-01-24 00:02:00,45.7,38.2,30.27,ENE,67,0.0,0.0,75,0.00,,,0.00,WUHU21623XXSP,2013-01-24 06:02:00,
2013-01-24 00:07:00,45.7,38.2,30.28,ENE,67,0.0,3.4,75,0.00,,,0.00,WUHU21623XXSP,2013-01-24 06:07:00,
2013-01-24 00:12:00,45.7,38.2,30.28,NE,45,0.0,4.3,75,0.00,,,0.00,WUHU21623XXSP,2013-01-24 06:12:00,
2013-01-24 00:17:00,45.9,38.4,30.28,ENE,67,0.0,4.3,75,0.00,,,0.00,WUHU21623XXSP,2013-01-24 06:17:00,
2013-01-24 00:22:00,45.9,38.0,30.28,ENE,67,0.0,4.0,74,0.00,,,0.00,WUHU21623XXSP,2013-01-24 06:22:00,
2013-01-24 00:27:00,45.7,37.5,30.27,ENE,67,0.0,4.5,73,0.00,,,0.00,WUHU21623XXSP,2013-01-24 06:27:00,
2013-01-24 00:32:00,45.7,37.5,30.27,ENE,67,0.0,4.7,73,0.00,,,0.00,WUHU21623XXSP,2013-01-24 06:32:00,
2013-01-24 00:37:00,45.5,37.0,30.27,ENE,67,0.0,4.7,72,0.00,,,0.00,WUHU21623XXSP,2013-01-24 06:37:00,
2013-01-24 00:42:00,45.1,36.6,30.27,East,90,0.0,0.0,72,0.00,,,0.00,WUHU21623XXSP,2013-01-24 06:42:00,
2013-01-24 00:47:00,45.1,36.3,30.28,ENE,67,0.0,4.7,71,0.00,,,0.00,WUHU21623XXSP,2013-01-24 06:47:00,
2013-01-24 00:52:00,45.0,36.1,30.27,ENE,67,0.0,4.7,71,0.00,,,0.00,WUHU21623XXSP,2013-01-24 06:52:00,
2013-01-24 00:57:00,44.6,35.8,30.27,ENE,67,0.0,0.0,71,0.00,,,0.00,WUHU21623XXSP,2013-01-24 06:57:00,
2013-01-24 01:02:00,44.4,35.3,30.27,ENE,67,0.0,0.0,70,0.00,,,0.00,WUHU21623XXSP,2013-01-24 07:02:00,
2013-01-24 01:07:00,44.2,35.1,30.26,NE,45,0.0,0.0,70,0.00,,,0.00,WUHU21623XXSP,2013-01-24 07:07:00,
2013-01-24 01:12:00,43.9,34.8,30.26,ENE,67,0.0,0.0,70,0.00,,,0.00,WUHU21623XXSP,2013-01-24 07:12:00,
2013-01-24 01:17:00,43.5,34.4,30.27,ENE,67,0.0,6.0,70,0.00,,,0.00,WUHU21623XXSP,2013-01-24 07:17:00,
2013-01-24 01:22:00,43.5,34.4,30.27,NE,45,0.0,6.0,70,0.00,,,0.00,WUHU21623XXSP,2013-01-24 07:22:00,
2013-01-24 01:27:00,43.3,34.3,30.27,NE,45,0.0,0.0,70,0.00,,,0.00,WUHU21623XXSP,2013-01-24 07:27:00,
2013-01-24 01:32:00,43.0,34.0,30.28,ENE,67,0.0,0.0,70,0.00,,,0.00,WUHU21623XXSP,2013-01-24 07:32:00,
2013-01-24 01:37:00,42.6,33.6,30.27,ENE,67,0.0,0.0,70,0.00,,,0.00,WUHU21623XXSP,2013-01-24 07:37:00,
2013-01-24 01:42:00,42.6,33.6,30.28,NE,45,3.1,3.1,70,0.00,,,0.00,WUHU21623XXSP,2013-01-24 07:42:00,
2013-01-24 01:47:00,42.6,33.9,30.28,NE,45,1.1,3.1,71,0.00,,,0.00,WUHU21623XXSP,2013-01-24 07:47:00,
2013-01-24 01:52:00,42.6,33.9,30.28,ENE,67,0.0,1.3,71,0.00,,,0.00,WUHU21623XXSP,2013-01-24 07:52:00,
2013-01-24 01:57:00,43.0,34.0,30.28,ENE,67,0.0,1.3,70,0.00,,,0.00,WUHU21623XXSP,2013-01-24 07:57:00,
2013-01-24 02:02:00,43.2,33.7,30.28,ENE,67,0.0,4.0,69,0.00,,,0.00,WUHU21623XXSP,2013-01-24 08:02:00,
2013-01-24 02:07:00,43.2,33.3,30.29,ENE,67,0.0,4.0,68,0.00,,,0.00,WUHU21623XXSP,2013-01-24 08:07:00,
2013-01-24 02:12:00,43.3,33.1,30.29,East,90,0.0,8.1,67,0.00,,,0.00,WUHU21623XXSP,2013-01-24 08:12:00,
2013-01-24 02:17:00,43.3,33.1,30.28,ENE,67,0.0,8.1,67,0.00,,,0.00,WUHU21623XXSP,2013-01-24 08:17:00,
2013-01-24 02:22:00,43.3,32.7,30.29,ENE,67,0.0,6.3,66,0.00,,,0.00,WUHU21623XXSP,2013-01-24 08:22:00,
2013-01-24 02:27:00,43.5,32.1,30.29,ESE,112,1.1,8.3,64,0.00,,,0.00,WUHU21623XXSP,2013-01-24 08:27:00,
2013-01-24 02:32:00,43.5,31.7,30.28,East,90,0.0,8.3,63,0.00,,,0.00,WUHU21623XXSP,2013-01-24 08:32:00,
2013-01-24 02:37:00,43.3,30.8,30.29,ESE,112,4.3,7.4,61,0.00,,,0.00,WUHU21623XXSP,2013-01-24 08:37:00,
2013-01-24 02:42:00,43.3,30.8,30.28,ESE,112,0.0,7.4,61,0.00,,,0.00,WUHU21623XXSP,2013-01-24 08:42:00,
2013-01-24 02:47:00,43.3,30.8,30.28,ENE,67,0.0,5.8,61,0.00,,,0.00,WUHU21623XXSP,2013-01-24 08:47:00,
2013-01-24 02:52:00,43.2,30.2,30.28,ESE,112,0.0,6.3,60,0.00,,,0.00,WUHU21623XXSP,2013-01-24 08:52:00,
2013-01-24 02:57:00,43.2,30.2,30.28,ENE,67,0.0,6.3,60,0.00,,,0.00,WUHU21623XXSP,2013-01-24 08:57:00,
2013-01-24 03:02:00,43.2,30.2,30.28,ESE,112,0.0,7.6,60,0.00,,,0.00,WUHU21623XXSP,2013-01-24 09:02:00,
2013-01-24 03:07:00,43.2,29.8,30.29,ENE,67,3.4,8.3,59,0.00,,,0.00,WUHU21623XXSP,2013-01-24 09:07:00,
2013-01-24 03:12:00,43.0,30.0,30.29,ENE,67,0.0,8.3,60,0.00,,,0.00,WUHU21623XXSP,2013-01-24 09:12:00,
2013-01-24 03:17:00,43.0,29.6,30.29,ENE,67,6.3,7.6,59,0.00,,,0.00,WUHU21623XXSP,2013-01-24 09:17:00,
2013-01-24 03:22:00,43.0,29.6,30.28,East,90,0.0,7.6,59,0.00,,,0.00,WUHU21623XXSP,2013-01-24 09:22:00,
2013-01-24 03:27:00,42.8,29.4,30.29,ENE,67,0.7,6.5,59,0.00,,,0.00,WUHU21623XXSP,2013-01-24 09:27:00,
2013-01-24 03:32:00,42.6,29.2,30.29,ENE,67,2.0,4.7,59,0.00,,,0.00,WUHU21623XXSP,2013-01-24 09:32:00,
2013-01-24 03:37:00,42.6,29.2,30.28,East,90,5.1,7.4,59,0.00,,,0.00,WUHU21623XXSP,2013-01-24 09:37:00,
2013-01-24 03:42:00,42.6,29.2,30.28,ENE,67,0.0,7.4,59,0.00,,,0.00,WUHU21623XXSP,2013-01-24 09:42:00,
2013-01-24 03:47:00,42.6,28.8,30.28,ENE,67,2.2,5.8,58,0.00,,,0.00,WUHU21623XXSP,2013-01-24 09:47:00,
2013-01-24 03:52:00,42.4,28.6,30.28,ENE,67,0.0,6.3,58,0.00,,,0.00,WUHU21623XXSP,2013-01-24 09:52:00,
2013-01-24 03:57:00,42.4,28.6,30.28,ENE,67,0.0,6.3,58,0.00,,,0.00,WUHU21623XXSP,2013-01-24 09:57:00,
2013-01-24 04:02:00,42.4,28.6,30.28,ENE,67,0.0,6.7,58,0.00,,,0.00,WUHU21623XXSP,2013-01-24 10:02:00,
2013-01-24 04:07:00,42.1,28.3,30.28,NE,45,0.0,6.7,58,0.00,,,0.00,WUHU21623XXSP,2013-01-24 10:07:00,
2013-01-24 04:12:00,42.1,28.3,30.28,ENE,67,0.0,7.2,58,0.00,,,0.00,WUHU21623XXSP,2013-01-24 10:12:00,
2013-01-24 04:17:00,42.1,27.9,30.28,ENE,67,0.0,8.3,57,0.00,,,0.00,WUHU21623XXSP,2013-01-24 10:17:00,
2013-01-24 04:22:00,41.9,27.7,30.28,ENE,67,0.0,8.5,57,0.00,,,0.00,WUHU21623XXSP,2013-01-24 10:22:00,
2013-01-24 04:27:00,41.7,27.5,30.28,ESE,112,4.5,11.0,57,0.00,,,0.00,WUHU21623XXSP,2013-01-24 10:27:00,
2013-01-24 04:32:00,41.5,27.4,30.28,ENE,67,2.9,11.0,57,0.00,,,0.00,WUHU21623XXSP,2013-01-24 10:32:00,
2013-01-24 04:37:00,41.5,27.4,30.28,ESE,112,0.0,9.2,57,0.00,,,0.00,WUHU21623XXSP,2013-01-24 10:37:00,
2013-01-24 04:42:00,41.5,27.4,30.27,ENE,67,1.6,8.3,57,0.00,,,0.00,WUHU21623XXSP,2013-01-24 10:42:00,
2013-01-24 04:47:00,41.4,27.2,30.28,ENE,67,0.0,6.5,57,0.00,,,0.00,WUHU21623XXSP,2013-01-24 10:47:00,
2013-01-24 04:52:00,41.2,27.0,30.28,NE,45,2.5,6.0,57,0.00,,,0.00,WUHU21623XXSP,2013-01-24 10:52:00,
2013-01-24 04:57:00,41.2,27.5,30.28,NE,45,3.1,6.0,58,0.00,,,0.00,WUHU21623XXSP,2013-01-24 10:57:00,
2013-01-24 05:02:00,41.2,27.0,30.29,ESE,112,0.0,7.2,57,0.00,,,0.00,WUHU21623XXSP,2013-01-24 11:02:00,
2013-01-24 05:07:00,41.0,27.3,30.29,East,90,0.0,7.2,58,0.00,,,0.00,WUHU21623XXSP,2013-01-24 11:07:00,
2013-01-24 05:12:00,40.8,27.1,30.29,ESE,112,0.0,6.7,58,0.00,,,0.00,WUHU21623XXSP,2013-01-24 11:12:00,
2013-01-24 05:17:00,40.8,27.1,30.29,ENE,67,0.0,6.7,58,0.00,,,0.00,WUHU21623XXSP,2013-01-24 11:17:00,
2013-01-24 05:22:00,40.8,27.1,30.29,ESE,112,7.8,7.8,58,0.00,,,0.00,WUHU21623XXSP,2013-01-24 11:22:00,
2013-01-24 05:27:00,40.8,26.7,30.29,ESE,112,0.0,9.8,57,0.00,,,0.00,WUHU21623XXSP,2013-01-24 11:27:00,
2013-01-24 05:32:00,40.8,27.1,30.30,ENE,67,1.6,9.8,58,0.00,,,0.00,WUHU21623XXSP,2013-01-24 11:32:00,
2013-01-24 05:37:00,40.6,27.0,30.29,ENE,67,0.0,6.3,58,0.00,,,0.00,WUHU21623XXSP,2013-01-24 11:37:00,
2013-01-24 05:42:00,40.6,27.0,30.29,East,90,0.0,6.3,58,0.00,,,0.00,WUHU21623XXSP,2013-01-24 11:42:00,
2013-01-24 05:47:00,40.6,27.0,30.29,ENE,67,0.0,4.5,58,0.00,,,0.00,WUHU21623XXSP,2013-01-24 11:47:00,
2013-01-24 05:52:00,40.6,27.0,30.29,ENE,67,0.0,5.1,58,0.00,,,0.00,WUHU21623XXSP,2013-01-24 11:52:00,
2013-01-24 05:57:00,40.5,26.8,30.29,ESE,112,0.0,5.1,58,0.00,,,0.00,WUHU21623XXSP,2013-01-24 11:57:00,
2013-01-24 06:02:00,40.3,26.2,30.29,ESE,112,0.0,4.5,57,0.00,,,0.00,WUHU21623XXSP,2013-01-24 12:02:00,
2013-01-24 06:07:00,40.3,26.2,30.29,ESE,112,3.1,8.5,57,0.00,,,0.00,WUHU21623XXSP,2013-01-24 12:07:00,
2013-01-24 06:12:00,40.3,26.2,30.29,ESE,112,1.1,8.5,57,0.00,,,0.00,WUHU21623XXSP,2013-01-24 12:12:00,
2013-01-24 06:17:00,40.1,26.0,30.29,SE,135,0.0,8.7,57,0.00,,,0.00,WUHU21623XXSP,2013-01-24 12:17:00,
2013-01-24 06:22:00,40.1,26.0,30.29,ESE,112,2.0,8.7,57,0.00,,,0.00,WUHU21623XXSP,2013-01-24 12:22:00,
2013-01-24 06:27:00,40.1,26.0,30.30,East,90,0.0,7.4,57,0.00,,,0.00,WUHU21623XXSP,2013-01-24 12:27:00,
2013-01-24 06:32:00,39.9,25.8,30.29,ESE,112,0.0,5.6,57,0.00,,,0.00,WUHU21623XXSP,2013-01-24 12:32:00,
2013-01-24 06:37:00,39.9,25.8,30.29,East,90,0.0,5.6,57,0.00,,,0.00,WUHU21623XXSP,2013-01-24 12:37:00,
2013-01-24 06:42:00,39.9,25.4,30.29,ENE,67,3.8,9.4,56,0.00,,,0.00,WUHU21623XXSP,2013-01-24 12:42:00,
2013-01-24 06:47:00,39.9,25.4,30.30,NE,45,0.0,9.4,56,0.00,,,0.00,WUHU21623XXSP,2013-01-24 12:47:00,
2013-01-24 06:52:00,39.9,25.8,30.30,ENE,67,0.0,5.4,57,0.00,,,0.00,WUHU21623XXSP,2013-01-24 12:52:00,
2013-01-24 06:57:00,39.7,25.2,30.30,East,90,0.0,8.1,56,0.00,,,0.00,WUHU21623XXSP,2013-01-24 12:57:00,
2013-01-24 07:02:00,39.7,25.2,30.30,ENE,67,3.6,8.1,56,0.00,,,0.00,WUHU21623XXSP,2013-01-24 13:02:00,
2013-01-24 07:07:00,39.6,25.0,30.31,ENE,67,0.0,6.5,56,0.00,,,0.00,WUHU21623XXSP,2013-01-24 13:07:00,
2013-01-24 07:12:00,39.4,24.9,30.30,NE,45,0.0,8.3,56,0.00,,,0.00,WUHU21623XXSP,2013-01-24 13:12:00,
2013-01-24 07:17:00,39.4,24.9,30.30,ESE,112,4.5,8.3,56,0.00,,,0.00,WUHU21623XXSP,2013-01-24 13:17:00,
2013-01-24 07:22:00,39.4,24.4,30.30,ENE,67,0.0,12.5,55,0.00,,,0.00,WUHU21623XXSP,2013-01-24 13:22:00,
2013-01-24 07:27:00,39.2,24.7,30.30,ENE,67,0.0,12.5,56,0.00,,,0.00,WUHU21623XXSP,2013-01-24 13:27:00,
2013-01-24 07:32:00,39.0,24.5,30.30,SE,135,2.5,6.9,56,0.00,,,0.00,WUHU21623XXSP,2013-01-24 13:32:00,
2013-01-24 07:37:00,39.0,24.5,30.30,ESE,112,0.0,6.9,56,0.00,,,0.00,WUHU21623XXSP,2013-01-24 13:37:00,
2013-01-24 07:42:00,39.0,24.5,30.30,ENE,67,4.5,7.2,56,0.00,,,0.00,WUHU21623XXSP,2013-01-24 13:42:00,
2013-01-24 07:47:00,39.0,24.5,30.30,ENE,67,0.0,7.2,56,0.00,,,0.00,WUHU21623XXSP,2013-01-24 13:47:00,
2013-01-24 07:52:00,39.0,24.5,30.30,ENE,67,0.9,4.5,56,0.00,,,0.00,WUHU21623XXSP,2013-01-24 13:52:00,
2013-01-24 07:57:00,38.8,23.9,30.30,ENE,67,2.9,6.5,55,0.00,,,0.00,WUHU21623XXSP,2013-01-24 13:57:00,
2013-01-24 08:02:00,38.8,24.4,30.30,East,90,0.0,6.5,56,0.00,,,0.00,WUHU21623XXSP,2013-01-24 14:02:00,
2013-01-24 08:07:00,38.8,23.9,30.30,ENE,67,0.0,6.3,55,0.00,,,0.00,WUHU21623XXSP,2013-01-24 14:07:00,
2013-01-24 08:12:00,38.8,23.9,30.29,ENE,67,0.0,6.3,55,0.00,,,0.00,WUHU21623XXSP,2013-01-24 14:12:00,
2013-01-24 08:17:00,38.8,23.9,30.30,East,90,0.0,7.6,55,0.00,,,0.00,WUHU21623XXSP,2013-01-24 14:17:00,
2013-01-24 08:22:00,38.8,23.9,30.29,ENE,67,2.9,7.6,55,0.00,,,0.00,WUHU21623XXSP,2013-01-24 14:22:00,
2013-01-24 08:27:00,38.8,23.9,30.30,ENE,67,2.9,3.6,55,0.00,,,0.00,WUHU21623XXSP,2013-01-24 14:27:00,
2013-01-24 08:32:00,38.8,23.5,30.30,East,90,0.0,3.6,54,0.00,,,0.00,WUHU21623XXSP,2013-01-24 14:32:00,
2013-01-24 08:37:00,38.8,23.9,30.30,ENE,67,0.0,3.8,55,0.00,,,0.00,WUHU21623XXSP,2013-01-24 14:37:00,
2013-01-24 08:42:00,39.0,23.7,30.29,ESE,112,0.0,8.1,54,0.00,,,0.00,WUHU21623XXSP,2013-01-24 14:42:00,
2013-01-24 08:47:00,39.0,23.7,30.30,East,90,0.0,8.1,54,0.00,,,0.00,WUHU21623XXSP,2013-01-24 14:47:00,
2013-01-24 08:52:00,39.0,23.7,30.31,East,90,0.0,5.1,54,0.00,,,0.00,WUHU21623XXSP,2013-01-24 14:52:00,
2013-01-24 08:57:00,39.0,23.7,30.31,NE,45,3.6,4.5,54,0.00,,,0.00,WUHU21623XXSP,2013-01-24 14:57:00,
2013-01-24 09:02:00,39.0,23.7,30.31,East,90,0.9,6.9,54,0.00,,,0.00,WUHU21623XXSP,2013-01-24 15:02:00,
2013-01-24 09:07:00,39.0,23.7,30.31,ESE,112,0.0,6.9,54,0.00,,,0.00,WUHU21623XXSP,2013-01-24 15:07:00,
2013-01-24 09:12:00,39.0,23.2,30.31,ENE,67,0.0,4.5,53,0.00,,,0.00,WUHU21623XXSP,2013-01-24 15:12:00,
2013-01-24 09:17:00,39.0,23.2,30.31,ENE,67,0.0,8.1,53,0.00,,,0.00,WUHU21623XXSP,2013-01-24 15:17:00,
2013-01-24 09:22:00,39.0,22.8,30.31,East,90,0.0,8.1,52,0.00,,,0.00,WUHU21623XXSP,2013-01-24 15:22:00,
2013-01-24 09:27:00,39.4,23.1,30.31,ENE,67,4.5,6.0,52,0.00,,,0.00,WUHU21623XXSP,2013-01-24 15:27:00,
2013-01-24 09:32:00,39.6,23.3,30.32,ENE,67,0.0,4.9,52,0.00,,,0.00,WUHU21623XXSP,2013-01-24 15:32:00,
2013-01-24 09:37:00,39.7,23.0,30.32,ENE,67,0.0,8.3,51,0.00,,,0.00,WUHU21623XXSP,2013-01-24 15:37:00,
2013-01-24 09:42:00,39.7,23.0,30.32,East,90,0.0,8.3,51,0.00,,,0.00,WUHU21623XXSP,2013-01-24 15:42:00,
2013-01-24 09:47:00,39.9,22.7,30.32,ESE,112,0.0,7.2,50,0.00,,,0.00,WUHU21623XXSP,2013-01-24 15:47:00,
2013-01-24 09:52:00,39.9,22.7,30.33,ENE,67,2.9,5.4,50,0.00,,,0.00,WUHU21623XXSP,2013-01-24 15:52:00,
2013-01-24 09:57:00,40.1,22.7,30.32,ESE,112,0.0,5.4,50,0.00,,,0.00,WUHU21623XXSP,2013-01-24 15:57:00,
2013-01-24 10:02:00,40.1,22.9,30.32,East,90,0.0,4.3,50,0.00,,,0.00,WUHU21623XXSP,2013-01-24 16:02:00,
2013-01-24 10:07:00,40.3,23.1,30.32,East,90,0.0,2.0,50,0.00,,,0.00,WUHU21623XXSP,2013-01-24 16:07:00,
2013-01-24 10:12:00,40.3,23.1,30.32,ESE,112,4.9,6.0,50,0.00,,,0.00,WUHU21623XXSP,2013-01-24 16:12:00,
2013-01-24 10:17:00,40.3,23.1,30.32,ESE,112,2.9,6.9,50,0.00,,,0.00,WUHU21623XXSP,2013-01-24 16:17:00,
2013-01-24 10:22:00,40.3,23.1,30.32,ESE,112,4.7,6.9,50,0.00,,,0.00,WUHU21623XXSP,2013-01-24 16:22:00,
2013-01-24 10:27:00,40.3,23.1,30.32,ESE,112,0.0,6.0,50,0.00,,,0.00,WUHU21623XXSP,2013-01-24 16:27:00,
2013-01-24 10:32:00,40.6,23.8,30.32,ESE,112,7.4,7.4,51,0.00,,,0.00,WUHU21623XXSP,2013-01-24 16:32:00,
2013-01-24 10:37:00,40.8,24.0,30.31,ESE,112,0.0,7.4,51,0.00,,,0.00,WUHU21623XXSP,2013-01-24 16:37:00,
2013-01-24 10:42:00,41.2,24.3,30.31,SE,135,0.0,7.8,51,0.00,,,0.00,WUHU21623XXSP,2013-01-24 16:42:00,
2013-01-24 10:47:00,41.4,24.5,30.32,ESE,112,0.0,7.8,51,0.00,,,0.00,WUHU21623XXSP,2013-01-24 16:47:00,
2013-01-24 10:52:00,41.7,24.4,30.31,ENE,67,6.7,6.7,50,0.00,,,0.00,WUHU21623XXSP,2013-01-24 16:52:00,
2013-01-24 10:57:00,41.9,24.6,30.31,East,90,0.0,6.7,50,0.00,,,0.00,WUHU21623XXSP,2013-01-24 16:57:00,
2013-01-24 11:02:00,42.1,24.8,30.31,ESE,112,0.0,2.7,50,0.00,,,0.00,WUHU21623XXSP,2013-01-24 17:02:00,
2013-01-24 11:07:00,42.1,24.8,30.31,SE,135,0.0,4.9,50,0.00,,,0.00,WUHU21623XXSP,2013-01-24 17:07:00,
2013-01-24 11:12:00,42.1,24.8,30.31,ESE,112,0.0,4.9,50,0.00,,,0.00,WUHU21623XXSP,2013-01-24 17:12:00,
2013-01-24 11:17:00,42.4,25.2,30.30,ESE,112,0.0,4.5,50,0.00,,,0.00,WUHU21623XXSP,2013-01-24 17:17:00,
2013-01-24 11:22:00,42.4,24.6,30.30,SE,135,1.3,8.1,49,0.00,,,0.00,WUHU21623XXSP,2013-01-24 17:22:00,
2013-01-24 11:27:00,42.4,24.6,30.29,ESE,112,0.0,8.1,49,0.00,,,0.00,WUHU21623XXSP,2013-01-24 17:27:00,
2013-01-24 11:32:00,42.6,25.3,30.30,SE,135,0.0,6.0,50,0.00,,,0.00,WUHU21623XXSP,2013-01-24 17:32:00,
2013-01-24 11:37:00,43.0,25.1,30.29,ESE,112,2.0,4.9,49,0.00,,,0.00,WUHU21623XXSP,2013-01-24 17:37:00,
2013-01-24 11:42:00,43.2,25.3,30.29,ESE,112,0.0,10.3,49,0.00,,,0.00,WUHU21623XXSP,2013-01-24 17:42:00,
2013-01-24 11:47:00,43.3,25.5,30.29,ESE,112,0.0,10.3,49,0.00,,,0.00,WUHU21623XXSP,2013-01-24 17:47:00,
2013-01-24 11:52:00,43.3,25.5,30.29,SE,135,0.0,3.8,49,0.00,,,0.00,WUHU21623XXSP,2013-01-24 17:52:00,
2013-01-24 11:57:00,43.5,25.6,30.28,East,90,0.0,3.8,49,0.00,,,0.00,WUHU21623XXSP,2013-01-24 17:57:00,
2013-01-24 12:02:00,43.9,26.0,30.28,East,90,0.0,8.9,49,0.00,,,0.00,WUHU21623XXSP,2013-01-24 18:02:00,
2013-01-24 12:07:00,44.2,25.7,30.28,SE,135,0.0,8.9,48,0.00,,,0.00,WUHU21623XXSP,2013-01-24 18:07:00,
2013-01-24 12:12:00,44.2,25.7,30.28,ESE,112,3.6,5.8,48,0.00,,,0.00,WUHU21623XXSP,2013-01-24 18:12:00,
2013-01-24 12:17:00,44.4,25.9,30.27,ESE,112,0.0,5.8,48,0.00,,,0.00,WUHU21623XXSP,2013-01-24 18:17:00,
2013-01-24 12:22:00,44.8,26.2,30.27,ESE,112,0.0,3.4,48,0.00,,,0.00,WUHU21623XXSP,2013-01-24 18:22:00,
2013-01-24 12:27:00,45.1,26.5,30.26,ENE,67,0.0,1.6,48,0.00,,,0.00,WUHU21623XXSP,2013-01-24 18:27:00,
2013-01-24 12:32:00,45.1,26.0,30.27,ENE,67,0.0,2.7,47,0.00,,,0.00,WUHU21623XXSP,2013-01-24 18:32:00,
2013-01-24 12:37:00,45.0,25.3,30.27,NE,45,1.3,6.7,46,0.00,,,0.00,WUHU21623XXSP,2013-01-24 18:37:00,
2013-01-24 12:42:00,44.4,24.8,30.27,ESE,112,0.0,6.7,46,0.00,,,0.00,WUHU21623XXSP,2013-01-24 18:42:00,
2013-01-24 12:47:00,44.4,25.4,30.26,ESE,112,0.0,6.7,47,0.00,,,0.00,WUHU21623XXSP,2013-01-24 18:47:00,
2013-01-24 12:52:00,44.4,25.4,30.26,SE,135,0.0,4.9,47,0.00,,,0.00,WUHU21623XXSP,2013-01-24 18:52:00,
2013-01-24 12:57:00,44.4,24.8,30.25,ENE,67,0.0,4.9,46,0.00,,,0.00,WUHU21623XXSP,2013-01-24 18:57:00,
2013-01-24 13:02:00,44.4,24.8,30.25,ENE,67,0.0,4.5,46,0.00,,,0.00,WUHU21623XXSP,2013-01-24 19:02:00,
2013-01-24 13:07:00,44.4,25.4,30.24,ENE,67,0.0,4.9,47,0.00,,,0.00,WUHU21623XXSP,2013-01-24 19:07:00,
2013-01-24 13:12:00,44.6,25.0,30.24,ENE,67,0.0,4.9,46,0.00,,,0.00,WUHU21623XXSP,2013-01-24 19:12:00,
2013-01-24 13:17:00,45.0,25.3,30.24,NE,45,7.4,7.4,46,0.00,,,0.00,WUHU21623XXSP,2013-01-24 19:17:00,
2013-01-24 13:22:00,45.0,25.3,30.24,ESE,112,0.0,7.4,46,0.00,,,0.00,WUHU21623XXSP,2013-01-24 19:22:00,
2013-01-24 13:27:00,45.1,25.5,30.24,ENE,67,0.0,4.5,46,0.00,,,0.00,WUHU21623XXSP,2013-01-24 19:27:00,
2013-01-24 13:32:00,45.1,25.5,30.24,ENE,67,6.0,6.0,46,0.00,,,0.00,WUHU21623XXSP,2013-01-24 19:32:00,
2013-01-24 13:37:00,45.0,25.3,30.24,East,90,0.0,6.0,46,0.00,,,0.00,WUHU21623XXSP,2013-01-24 19:37:00,
2013-01-24 13:42:00,45.0,25.3,30.23,East,90,0.0,6.0,46,0.00,,,0.00,WUHU21623XXSP,2013-01-24 19:42:00,
2013-01-24 13:47:00,45.0,25.3,30.23,ENE,67,0.0,0.0,46,0.00,,,0.00,WUHU21623XXSP,2013-01-24 19:47:00,
2013-01-24 13:52:00,45.1,25.5,30.22,ESE,112,0.0,5.4,46,0.00,,,0.00,WUHU21623XXSP,2013-01-24 19:52:00,
2013-01-24 13:57:00,45.1,25.5,30.22,ESE,112,0.0,5.4,46,0.00,,,0.00,WUHU21623XXSP,2013-01-24 19:57:00,
2013-01-24 14:02:00,45.3,25.6,30.22,ESE,112,0.0,1.3,46,0.00,,,0.00,WUHU21623XXSP,2013-01-24 20:02:00,
2013-01-24 14:07:00,45.1,25.5,30.22,ENE,67,0.0,1.3,46,0.00,,,0.00,WUHU21623XXSP,2013-01-24 20:07:00,
2013-01-24 14:12:00,45.0,25.3,30.22,ESE,112,0.0,1.1,46,0.00,,,0.00,WUHU21623XXSP,2013-01-24 20:12:00,
2013-01-24 14:17:00,45.0,25.3,30.22,ESE,112,0.0,4.3,46,0.00,,,0.00,WUHU21623XXSP,2013-01-24 20:17:00,
2013-01-24 14:22:00,45.0,25.3,30.22,East,90,0.0,4.3,46,0.00,,,0.00,WUHU21623XXSP,2013-01-24 20:22:00,
2013-01-24 14:27:00,44.6,25.0,30.22,ENE,67,0.0,0.9,46,0.00,,,0.00,WUHU21623XXSP,2013-01-24 20:27:00,
2013-01-24 14:32:00,44.6,25.0,30.21,ESE,112,0.0,0.9,46,0.00,,,0.00,WUHU21623XXSP,2013-01-24 20:32:00,
2013-01-24 14:37:00,44.4,24.8,30.21,ESE,112,0.0,0.0,46,0.00,,,0.00,WUHU21623XXSP,2013-01-24 20:37:00,
2013-01-24 14:42:00,44.8,25.1,30.21,ESE,112,0.0,0.0,46,0.00,,,0.00,WUHU21623XXSP,2013-01-24 20:42:00,
2013-01-24 14:47:00,44.8,25.1,30.20,East,90,0.0,0.9,46,0.00,,,0.00,WUHU21623XXSP,2013-01-24 20:47:00,
2013-01-24 14:52:00,44.8,25.1,30.21,East,90,0.0,0.9,46,0.00,,,0.00,WUHU21623XXSP,2013-01-24 20:52:00,
2013-01-24 14:57:00,45.0,25.8,30.21,SE,135,0.0,0.0,47,0.00,,,0.00,WUHU21623XXSP,2013-01-24 20:57:00,
2013-01-24 15:02:00,45.1,28.5,30.20,SSE,157,0.0,0.0,52,0.00,,,0.00,WUHU21623XXSP,2013-01-24 21:02:00,
2013-01-24 15:07:00,45.3,29.1,30.20,SE,135,0.0,2.5,53,0.00,,,0.00,WUHU21623XXSP,2013-01-24 21:07:00,
2013-01-24 15:12:00,45.5,29.3,30.21,ESE,112,0.0,6.5,53,0.00,,,0.00,WUHU21623XXSP,2013-01-24 21:12:00,
2013-01-24 15:17:00,45.7,29.9,30.21,SE,135,0.0,6.5,54,0.00,,,0.00,WUHU21623XXSP,2013-01-24 21:17:00,
2013-01-24 15:22:00,45.5,29.8,30.21,SE,135,0.0,4.0,54,0.00,,,0.00,WUHU21623XXSP,2013-01-24 21:22:00,
2013-01-24 15:27:00,45.5,29.8,30.21,South,180,0.0,5.4,54,0.00,,,0.00,WUHU21623XXSP,2013-01-24 21:27:00,
2013-01-24 15:32:00,45.5,30.2,30.21,SE,135,0.0,5.4,55,0.00,,,0.00,WUHU21623XXSP,2013-01-24 21:32:00,
2013-01-24 15:37:00,45.5,30.2,30.20,SE,135,0.0,2.5,55,0.00,,,0.00,WUHU21623XXSP,2013-01-24 21:37:00,
2013-01-24 15:42:00,45.5,30.2,30.20,ESE,112,0.0,0.0,55,0.00,,,0.00,WUHU21623XXSP,2013-01-24 21:42:00,
2013-01-24 15:47:00,45.5,30.2,30.20,ESE,112,0.0,3.4,55,0.00,,,0.00,WUHU21623XXSP,2013-01-24 21:47:00,
2013-01-24 15:52:00,45.5,30.6,30.19,SE,135,0.0,3.4,56,0.00,,,0.00,WUHU21623XXSP,2013-01-24 21:52:00,
2013-01-24 15:57:00,45.3,30.9,30.19,SE,135,0.0,2.2,57,0.00,,,0.00,WUHU21623XXSP,2013-01-24 21:57:00,
2013-01-24 16:02:00,45.3,30.9,30.19,SSE,157,0.0,2.2,57,0.00,,,0.00,WUHU21623XXSP,2013-01-24 22:02:00,
2013-01-24 16:07:00,45.3,30.9,30.19,ESE,112,0.0,0.0,57,0.00,,,0.00,WUHU21623XXSP,2013-01-24 22:07:00,
2013-01-24 16:12:00,45.1,30.8,30.18,ESE,112,0.0,1.6,57,0.00,,,0.00,WUHU21623XXSP,2013-01-24 22:12:00,
2013-01-24 16:17:00,45.1,31.2,30.18,SE,135,0.0,1.6,58,0.00,,,0.00,WUHU21623XXSP,2013-01-24 22:17:00,
2013-01-24 16:22:00,45.0,32.0,30.19,ESE,112,0.0,3.4,60,0.00,,,0.00,WUHU21623XXSP,2013-01-24 22:22:00,
2013-01-24 16:27:00,45.0,32.3,30.18,SE,135,0.0,3.4,61,0.00,,,0.00,WUHU21623XXSP,2013-01-24 22:27:00,
2013-01-24 16:32:00,44.6,32.0,30.19,SE,135,0.0,2.2,61,0.00,,,0.00,WUHU21623XXSP,2013-01-24 22:32:00,
2013-01-24 16:37:00,44.4,32.2,30.20,SSE,157,0.0,2.2,62,0.00,,,0.00,WUHU21623XXSP,2013-01-24 22:37:00,
2013-01-24 16:42:00,44.2,32.0,30.19,South,180,0.0,2.9,62,0.00,,,0.00,WUHU21623XXSP,2013-01-24 22:42:00,
2013-01-24 16:47:00,44.2,32.0,30.19,SE,135,0.0,2.9,62,0.00,,,0.00,WUHU21623XXSP,2013-01-24 22:47:00,
2013-01-24 16:52:00,44.1,31.5,30.19,SSE,157,0.0,0.0,61,0.00,,,0.00,WUHU21623XXSP,2013-01-24 22:52:00,
2013-01-24 16:57:00,43.9,31.3,30.19,SE,135,0.0,5.8,61,0.00,,,0.00,WUHU21623XXSP,2013-01-24 22:57:00,
2013-01-24 17:02:00,43.7,31.1,30.19,SE,135,0.0,5.8,61,0.00,,,0.00,WUHU21623XXSP,2013-01-24 23:02:00,
2013-01-24 17:07:00,43.5,30.9,30.19,SE,135,0.0,0.0,61,0.00,,,0.00,WUHU21623XXSP,2013-01-24 23:07:00,
2013-01-24 17:12:00,43.5,30.6,30.18,SSE,157,0.0,0.0,60,0.00,,,0.00,WUHU21623XXSP,2013-01-24 23:12:00,
2013-01-24 17:17:00,43.3,30.4,30.18,SSE,157,0.0,5.1,60,0.00,,,0.00,WUHU21623XXSP,2013-01-24 23:17:00,
2013-01-24 17:22:00,43.0,30.0,30.18,SSE,157,0.0,5.1,60,0.00,,,0.00,WUHU21623XXSP,2013-01-24 23:22:00,
2013-01-24 17:27:00,43.0,30.0,30.18,SSE,157,0.0,6.7,60,0.00,,,0.00,WUHU21623XXSP,2013-01-24 23:27:00,
2013-01-24 17:32:00,42.6,29.7,30.18,SSE,157,0.0,6.7,60,0.00,,,0.00,WUHU21623XXSP,2013-01-24 23:32:00,
2013-01-24 17:37:00,42.6,29.7,30.18,South,180,0.0,7.2,60,0.00,,,0.00,WUHU21623XXSP,2013-01-24 23:37:00,
2013-01-24 17:42:00,42.6,29.7,30.18,SSW,202,0.0,7.4,60,0.00,,,0.00,WUHU21623XXSP,2013-01-24 23:42:00,
2013-01-24 17:47:00,42.4,29.5,30.17,SSE,157,8.9,12.8,60,0.00,,,0.00,WUHU21623XXSP,2013-01-24 23:47:00,
2013-01-24 17:52:00,42.4,29.1,30.18,South,180,2.0,12.8,59,0.00,,,0.00,WUHU21623XXSP,2013-01-24 23:52:00,
2013-01-24 17:57:00,42.3,28.9,30.18,SE,135,0.0,8.9,59,0.00,,,0.00,WUHU21623XXSP,2013-01-24 23:57:00,
2013-01-24 18:02:00,42.1,29.2,30.18,SSE,157,0.0,3.1,60,0.00,,,0.00,WUHU21623XXSP,2013-01-25 00:02:00,
2013-01-24 18:07:00,42.1,29.2,30.18,SSE,157,0.0,3.1,60,0.00,,,0.00,WUHU21623XXSP,2013-01-25 00:07:00,
2013-01-24 18:12:00,42.1,29.2,30.17,SSE,157,0.0,6.3,60,0.00,,,0.00,WUHU21623XXSP,2013-01-25 00:12:00,
2013-01-24 18:17:00,41.9,29.0,30.17,SSE,157,0.0,6.5,60,0.00,,,0.00,WUHU21623XXSP,2013-01-25 00:17:00,
2013-01-24 18:22:00,41.9,29.0,30.17,SSE,157,0.0,6.5,60,0.00,,,0.00,WUHU21623XXSP,2013-01-25 00:22:00,
2013-01-24 18:27:00,41.7,28.9,30.17,South,180,3.8,4.7,60,0.00,,,0.00,WUHU21623XXSP,2013-01-25 00:27:00,
2013-01-24 18:32:00,41.7,28.4,30.17,SSE,157,0.0,7.8,59,0.00,,,0.00,WUHU21623XXSP,2013-01-25 00:32:00,
2013-01-24 18:37:00,41.5,27.8,30.16,SSE,157,0.0,7.8,58,0.00,,,0.00,WUHU21623XXSP,2013-01-25 00:37:00,
2013-01-24 18:42:00,41.5,27.8,30.15,South,180,0.0,0.0,58,0.00,,,0.00,WUHU21623XXSP,2013-01-25 00:42:00,
2013-01-24 18:47:00,41.4,27.6,30.16,SSE,157,0.0,0.0,58,0.00,,,0.00,WUHU21623XXSP,2013-01-25 00:47:00,
2013-01-24 18:52:00,41.4,28.1,30.16,South,180,0.0,0.0,59,0.00,,,0.00,WUHU21623XXSP,2013-01-25 00:52:00,
2013-01-24 18:57:00,41.4,28.1,30.15,South,180,0.0,3.4,59,0.00,,,0.00,WUHU21623XXSP,2013-01-25 00:57:00,
2013-01-24 19:02:00,41.2,27.9,30.15,South,180,0.0,3.4,59,0.00,,,0.00,WUHU21623XXSP,2013-01-25 01:02:00,
2013-01-24 19:07:00,41.2,27.9,30.15,South,180,0.0,0.0,59,0.00,,,0.00,WUHU21623XXSP,2013-01-25 01:07:00,
2013-01-24 19:12:00,41.0,27.8,30.15,South,180,0.0,0.0,59,0.00,,,0.00,WUHU21623XXSP,2013-01-25 01:12:00,
2013-01-24 19:17:00,40.8,27.6,30.15,South,180,0.0,0.0,59,0.00,,,0.00,WUHU21623XXSP,2013-01-25 01:17:00,
2013-01-24 19:22:00,40.8,28.0,30.15,SSE,157,0.0,0.0,60,0.00,,,0.00,WUHU21623XXSP,2013-01-25 01:22:00,
2013-01-24 19:27:00,40.8,28.0,30.15,South,180,0.0,0.0,60,0.00,,,0.00,WUHU21623XXSP,2013-01-25 01:27:00,
2013-01-24 19:32:00,40.8,28.0,30.15,SSW,202,3.4,4.9,60,0.00,,,0.00,WUHU21623XXSP,2013-01-25 01:32:00,
2013-01-24 19:37:00,40.6,28.2,30.15,South,180,0.0,4.9,61,0.00,,,0.00,WUHU21623XXSP,2013-01-25 01:37:00,
2013-01-24 19:42:00,40.6,28.6,30.15,SSE,157,0.0,4.3,62,0.00,,,0.00,WUHU21623XXSP,2013-01-25 01:42:00,
2013-01-24 19:47:00,40.5,28.8,30.15,SSE,157,0.0,4.5,63,0.00,,,0.00,WUHU21623XXSP,2013-01-25 01:47:00,
2013-01-24 19:52:00,40.3,29.0,30.14,SSE,157,0.0,8.3,64,0.00,,,0.00,WUHU21623XXSP,2013-01-25 01:52:00,
2013-01-24 19:57:00,40.3,29.0,30.14,SSE,157,0.0,8.3,64,0.00,,,0.00,WUHU21623XXSP,2013-01-25 01:57:00,
2013-01-24 20:02:00,40.1,28.8,30.14,South,180,0.0,6.7,64,0.00,,,0.00,WUHU21623XXSP,2013-01-25 02:02:00,
2013-01-24 20:07:00,39.9,28.7,30.14,South,180,5.4,7.6,64,0.00,,,0.00,WUHU21623XXSP,2013-01-25 02:07:00,
2013-01-24 20:12:00,39.7,28.9,30.15,South,180,3.4,7.6,65,0.00,,,0.00,WUHU21623XXSP,2013-01-25 02:12:00,
2013-01-24 20:17:00,39.7,28.9,30.16,SSE,157,0.0,4.0,65,0.00,,,0.00,WUHU21623XXSP,2013-01-25 02:17:00,
2013-01-24 20:22:00,39.6,28.7,30.16,SSW,202,0.0,0.0,65,0.00,,,0.00,WUHU21623XXSP,2013-01-25 02:22:00,
2013-01-24 20:27:00,39.4,28.5,30.16,SSW,202,0.0,3.1,65,0.00,,,0.00,WUHU21623XXSP,2013-01-25 02:27:00,
2013-01-24 20:32:00,39.4,28.5,30.17,SW,225,0.0,3.1,65,0.00,,,0.00,WUHU21623XXSP,2013-01-25 02:32:00,
2013-01-24 20:37:00,39.0,28.5,30.17,South,180,0.0,2.0,66,0.00,,,0.00,WUHU21623XXSP,2013-01-25 02:37:00,
2013-01-24 20:42:00,39.0,28.5,30.17,SSE,157,0.0,2.0,66,0.00,,,0.00,WUHU21623XXSP,2013-01-25 02:42:00,
2013-01-24 20:47:00,38.8,28.4,30.17,South,180,0.0,7.2,66,0.00,,,0.00,WUHU21623XXSP,2013-01-25 02:47:00,
2013-01-24 20:52:00,38.8,28.4,30.16,South,180,0.0,7.8,66,0.00,,,0.00,WUHU21623XXSP,2013-01-25 02:52:00,
2013-01-24 20:57:00,38.5,28.0,30.16,South,180,0.0,7.8,66,0.00,,,0.00,WUHU21623XXSP,2013-01-25 02:57:00,
2013-01-24 21:02:00,38.5,28.0,30.17,SSW,202,0.0,5.6,66,0.00,,,0.00,WUHU21623XXSP,2013-01-25 03:02:00,
2013-01-24 21:07:00,38.3,28.3,30.17,SE,135,0.0,5.6,67,0.00,,,0.00,WUHU21623XXSP,2013-01-25 03:07:00,
2013-01-24 21:12:00,38.1,28.1,30.17,SSW,202,0.0,3.6,67,0.00,,,0.00,WUHU21623XXSP,2013-01-25 03:12:00,
2013-01-24 21:17:00,38.1,28.5,30.17,South,180,0.0,4.3,68,0.00,,,0.00,WUHU21623XXSP,2013-01-25 03:17:00,
2013-01-24 21:22:00,37.9,28.3,30.17,SSW,202,0.0,4.3,68,0.00,,,0.00,WUHU21623XXSP,2013-01-25 03:22:00,
2013-01-24 21:27:00,37.9,28.7,30.17,South,180,0.0,0.0,68,0.00,,,0.00,WUHU21623XXSP,2013-01-25 03:27:00,
2013-01-24 21:32:00,37.9,28.3,30.17,South,180,0.0,0.0,68,0.00,,,0.00,WUHU21623XXSP,2013-01-25 03:32:00,
2013-01-24 21:37:00,37.9,28.7,30.17,SSW,202,0.0,0.0,69,0.00,,,0.00,WUHU21623XXSP,2013-01-25 03:37:00,
2013-01-24 21:42:00,37.8,28.5,30.18,SSW,202,0.0,0.0,69,0.00,,,0.00,WUHU21623XXSP,2013-01-25 03:42:00,
2013-01-24 21:47:00,37.8,28.5,30.17,SSW,202,0.0,0.0,69,0.00,,,0.00,WUHU21623XXSP,2013-01-25 03:47:00,
2013-01-24 21:52:00,37.8,28.9,30.17,South,180,0.0,2.7,70,0.00,,,0.00,WUHU21623XXSP,2013-01-25 03:52:00,
2013-01-24 21:57:00,37.6,28.7,30.16,SSW,202,0.0,2.7,70,0.00,,,0.00,WUHU21623XXSP,2013-01-25 03:57:00,
2013-01-24 22:02:00,37.6,28.7,30.17,SSW,202,0.0,3.4,70,0.00,,,0.00,WUHU21623XXSP,2013-01-25 04:02:00,
2013-01-24 22:07:00,37.2,28.7,30.16,SSW,202,0.0,3.4,71,0.00,,,0.00,WUHU21623XXSP,2013-01-25 04:07:00,
2013-01-24 22:12:00,37.2,29.0,30.15,SSE,157,0.0,1.8,72,0.00,,,0.00,WUHU21623XXSP,2013-01-25 04:12:00,
2013-01-24 22:17:00,37.0,28.9,30.16,SW,225,0.0,4.3,72,0.00,,,0.00,WUHU21623XXSP,2013-01-25 04:17:00,
2013-01-24 22:22:00,36.9,29.0,30.16,SSW,202,0.0,4.3,73,0.00,,,0.00,WUHU21623XXSP,2013-01-25 04:22:00,
2013-01-24 22:27:00,36.7,28.8,30.16,South,180,0.0,4.5,73,0.00,,,0.00,WUHU21623XXSP,2013-01-25 04:27:00,
2013-01-24 22:32:00,36.5,29.0,30.17,SW,225,0.0,4.5,74,0.00,,,0.00,WUHU21623XXSP,2013-01-25 04:32:00,
2013-01-24 22:37:00,36.3,29.1,30.17,SSW,202,0.0,0.0,75,0.00,,,0.00,WUHU21623XXSP,2013-01-25 04:37:00,
2013-01-24 22:42:00,36.1,28.9,30.17,SSW,202,0.0,0.0,75,0.00,,,0.00,WUHU21623XXSP,2013-01-25 04:42:00,
2013-01-24 22:47:00,36.0,29.1,30.17,South,180,0.0,0.0,76,0.00,,,0.00,WUHU21623XXSP,2013-01-25 04:47:00,
2013-01-24 22:52:00,35.8,28.9,30.17,South,180,0.0,0.0,76,0.00,,,0.00,WUHU21623XXSP,2013-01-25 04:52:00,
2013-01-24 22:57:00,35.4,28.9,30.17,SSW,202,0.0,4.5,77,0.00,,,0.00,WUHU21623XXSP,2013-01-25 04:57:00,
2013-01-24 23:00:00,35.4,28.9,30.17,SW,225,0.0,4.5,77,0.00,,,0.00,WUHU21623XXSP,2013-01-25 05:00:00,
2013-01-24 23:01:00,35.4,28.9,30.17,SW,225,0.0,4.5,77,0.00,,,0.00,WUHU21623XXSP,2013-01-25 05:01:00,
2013-01-24 23:03:00,35.4,28.9,30.17,WSW,247,0.0,4.5,77,0.00,,,0.00,WUHU21623XXSP,2013-01-25 05:03:00,
2013-01-24 23:08:00,35.2,29.0,30.17,West,270,0.0,0.0,78,0.00,,,0.00,WUHU21623XXSP,2013-01-25 05:08:00,
2013-01-24 23:13:00,34.9,29.0,30.17,SSW,202,0.0,0.0,79,0.00,,,0.00,WUHU21623XXSP,2013-01-25 05:13:00,
2013-01-24 23:18:00,34.7,28.8,30.17,West,270,0.0,0.0,79,0.00,,,0.00,WUHU21623XXSP,2013-01-25 05:18:00,
2013-01-24 23:23:00,34.3,28.8,30.18,West,270,0.0,0.0,80,0.00,,,0.00,WUHU21623XXSP,2013-01-25 05:23:00,
2013-01-24 23:28:00,34.3,28.8,30.18,West,270,0.0,0.0,80,0.00,,,0.00,WUHU21623XXSP,2013-01-25 05:28:00,
2013-01-24 23:33:00,34.3,29.0,30.18,West,270,0.0,0.0,81,0.00,,,0.00,WUHU21623XXSP,2013-01-25 05:33:00,
2013-01-24 23:38:00,34.2,28.9,30.18,West,270,0.0,0.0,81,0.00,,,0.00,WUHU21623XXSP,2013-01-25 05:38:00,
2013-01-24 23:43:00,34.0,28.7,30.18,West,270,0.0,0.0,81,0.00,,,0.00,WUHU21623XXSP,2013-01-25 05:43:00,
2013-01-24 23:48:00,34.0,28.7,30.17,West,270,0.0,0.0,81,0.00,,,0.00,WUHU21623XXSP,2013-01-25 05:48:00,
2013-01-24 23:53:00,33.8,28.5,30.17,West,270,0.0,0.0,81,0.00,,,0.00,WUHU21623XXSP,2013-01-25 05:53:00,
2013-01-24 23:58:00,33.8,28.8,30.17,West,270,0.0,0.0,82,0.00,,,0.00,WUHU21623XXSP,2013-01-25 05:58:00,